Location: Lac de la Montange Noire
(46.1952°N, 74.2701°W)
Time: 04:18:51
(UTC-04:00)

Iridium 42 - Visible Passes

Search period start: 30 June 2015 00:00
Search period end: 10 July 2015 00:00
Orbit: 775 x 779 km, 86.4° (Epoch: 29 June)

Date Brightness Start Highest point End Pass type
(mag) Time Alt. Az. Time Alt. Az. Time Alt. Az.
30 Jun 8.1 02:26:42 10° E 02:28:39 12° ENE 02:30:54 10° NE visible
30 Jun 5.6 04:03:28 10° S 04:08:41 89° W 04:13:56 10° N visible
01 Jul 6.3 03:30:01 10° SSE 03:35:02 52° E 03:40:07 10° NNE visible
02 Jul 7.2 02:57:04 10° SE 03:01:29 30° E 03:06:01 10° NNE visible
03 Jul 7.9 02:24:48 10° ESE 02:28:03 17° ENE 02:31:29 10° NE visible
03 Jul 5.6 04:03:07 10° SSW 04:08:17 64° W 04:13:30 10° N visible
04 Jul 5.7 03:29:27 10° S 03:34:34 73° E 03:39:48 10° N visible
05 Jul 6.6 02:56:09 10° SSE 03:00:58 41° E 03:05:52 10° NNE visible
06 Jul 7.4 02:23:27 10° SE 02:27:29 24° E 02:31:38 10° NNE visible
06 Jul 6.0 04:03:14 11° SSW 04:07:57 46° W 04:12:58 10° N visible
07 Jul 8.0 01:51:40 10° ESE 01:54:04 14° ENE 01:56:44 10° NE visible
07 Jul 5.5 03:29:53 16° S 03:34:09 81° W 03:39:25 10° N visible
08 Jul 6.0 02:56:30 16° SSE 03:00:29 57° E 03:05:37 10° N visible
08 Jul 7.1 04:37:53 10° WSW 04:41:42 20° WNW 04:45:23 10° NNW visible
09 Jul 6.9 02:23:07 14° SE 02:26:56 33° E 02:31:35 10° NNE visible
09 Jul 6.4 04:03:35 13° SW 04:07:40 33° WNW 04:12:21 10° NNW visible
